Retour au catalogue

STARLINK-36500

ActifCommunicationsVLEO
NORAD 67320·PAYLOAD·🇺🇸 United States

Lancé Jan 4, 2026 depuis Cape Canaveral Space Force Station

Loading…

Prochains Passages (prochaines 24 heures)

TLE

FraisSource: CelesTrak SupGP

Époque: Sep 14, 2026, 21:07 UTC

1 67320C 26002R   26257.88034722 -.00019896  00000+0 -72064-3 0  2577
2 67320  43.0019 337.2277 0001299 271.6007 262.3707 15.27588242    14

Suivez STARLINK-36500 en temps réel avec AllMySat

Download on the App Store